Regional Weather Roundup
Issued by NWS Charleston, SC

Current Version | Previous Version | Graphics & Text | Print | Product List | Glossary On
Versions: 1 2 3 4 5 6 7 8 9 10 11 12 13 14 15 16 17 18 19 20 21 22 23 24 25 26 27 28 29 30 31 32 33 34 35 36 37 38 39 40 41 42 43 44 45 46 47 48 49 50
000 ASUS42 KCHS 241526 RWRCHS REGIONAL WEATHER ROUNDUP NATIONAL WEATHER SERVICE CHARLESTON SC 1000 AM EST FRI FEB 24 2017 NOTE: "FAIR" INDICATES FEW OR NO CLOUDS BELOW 12,000 FEET WITH NO SIGNIFICANT WEATHER AND/OR OBSTRUCTIONS TO VISIBILITY. NOT ALL STATIONS ARE QUALITY CONTROLLED. USE DATA WITH CAUTION... ESPECIALLY DEWPOINT OBSERVATIONS. SCZ027-030-031-034>040-042>050-241600- ...SOUTHEAST SOUTH CAROLINA... CITY SKY/WX TMP DP RH WIND PRES REMARKS N CHARLESTON SUNNY 72 61 68 NE9 29.91R WATERFRONT PRK N/A 67 62 84 N7 29.89R MOUNT PLEASANT FAIR 72 64 78 CALM 29.91S JOHNS ISLAND FAIR 73 64 73 N8 29.91S PINOPOLIS N/A 61 59 94 VRB3 29.83R MONCKS CORNER FAIR 72 59 64 E7 29.92S SUMMERVILLE FAIR 70 61 73 NE5 29.93S BEAUFORT MCAS SUNNY 72 64 76 N6 29.92R BEAUFORT ARPT FAIR 68 63 83 NE7 29.91S HAZE HILTON HEAD IS SUNNY 70 63 78 N7 29.92R WALTERBORO SUNNY 70 61 73 E7 29.93S ALLENDALE FAIR 70 61 73 VRB3 29.91F ...SOUTHERN MIDLANDS AND PEE DEE... CITY SKY/WX TMP DP RH WIND PRES REMARKS GEORGETOWN FAIR 70 61 73 NE7 29.93S KINGSTREE FAIR 70 59 68 CALM 29.93S ORANGEBURG NOT AVBL BARNWELL FAIR 72 63 73 NE6 29.93S AIKEN FAIR 66 59 77 E5 29.97S MANNING FAIR 68 52 56 MISG 29.93S COLUMBIA MOSUNNY 66 57 72 CALM 29.94R SUMTER SUNNY 68 59 71 E6 29.92R FLORENCE SUNNY 69 60 73 CALM 29.94S MYRTLE BEACH SUNNY 70 61 73 NE8 29.94R N MYRTLE BEACH SUNNY 71 62 73 NE7 29.92R $$ GAZ063-065-086>088-099>101-113>116-118-119-134>141-150-241600- ...SOUTHEAST GEORGIA... CITY SKY/WX TMP DP RH WIND PRES REMARKS SAVANNAH ARPT SUNNY 71 61 70 NE8 29.91R HUNTER AAF SUNNY 71 67 89 NE5 29.89R FORT STEWART SUNNY 70 61 74 CALM 29.88R STATESBORO SUNNY 70 64 81 E7 29.91F SYLVANIA N/A N/A N/A N/A E7 29.92F HAZE CLAXTON FAIR N/A N/A N/A E8 29.91F ...CSRA...CENTRAL AND FAR SOUTHEAST GEORGIA... CITY SKY/WX TMP DP RH WIND PRES REMARKS THOMSON SUNNY 69 63 80 CALM 29.97S AUGUSTA-BUSH SUNNY 68 60 75 NE3 29.92S AUGUSTA-DANIEL SUNNY 68 58 70 SE5 29.94R SWAINSBORO FAIR 70 61 73 E6 29.92F VIDALIA SUNNY 72 64 78 SE6 29.91S EASTMAN FAIR 71 56 58 CALM 29.94S HAZLEHURST FAIR 71 67 87 E3 29.89S ALMA SUNNY 71 64 78 VRB6 29.89S WAYCROSS SUNNY 75 69 81 E8 29.90S JESUP FAIR 72 61 68 E8 29.90S BAXLEY FAIR 72 68 88 E7 29.89F BRUNSWICK SUNNY 73 68 83 NE10 29.91R SAINT SIMONS SUNNY 70 63 78 NE9 29.89R $$ SCZ027-028-034-036>038-045-046-048>050-GAZ119-141-241600- ...LAKE AND SUPPLEMENTAL COASTAL OBSERVATIONS... STATION/POSITION TIME TEMP WIND PRES WAVE SWELL AIR SEA DIR/SP/G HT/PER HT/PER/DIR (UTC) (F) (DEG/KT/KT) (MB) (FT/S) (FT/S/D) WINYAH BAY 1430 65 50/ 10 1013.0R LAKE MURRAY 1520 63 CALM 1013.2 ACE BASIN NERRS 1445 69 10/ 3 1013.0R FORT PULASKI 1500 68 62 50/ 5/ 7 1012.9 SAPELO ISLAND 1500 71 30/ 10 1012.0 $$ ANZ835-935-AMZ111-154-330-350-352-354-370-450-454-472-241600- ...C-MAN AND BUOY OBSERVATIONS... STATION/POSITION TIME TEMP WIND PRES WAVE SWELL AIR SEA DIR/SP/G HT/PER HT/PER/DIR (UTC) (F) (DEG/KT/KT) (MB) (FT/S) (FT/S/D) BUOY 41004 1450 70 70 20/ 8/ 10 1011.6R 10/11 10/120/11 BUOY 41008 1450 63 62 10/ 10/ 12 1011.5R 5/11 5/100/11 FOLLY BEACH CMAN 1500 64 30/ 7/ 8 1013.3R CAPERS NEARSHORE 1508 62 60 40/ 8/ 10 1012.6R FRIPP NEARSHORE 1508 63 61 30/ 8/ 10 1012.5R STATION/POSITION TIME TEMP WIND PRES WAVE SWELL AIR SEA DIR/SP/G HT/PER HT/PER/DIR (UTC) (F) (DEG/KT/KT) (MB) (FT/S) (FT/S/D) 5E ST. MARYS GA 1500 63 N/A 5/11 3/120/11 FRYING PAN BUOY 1510 69 72 30/ 14/ 17 1012.3 BUOY 41025 1450 72 74 120/ 16/ 19 1013.6F 7/10 7/140/10 CAPE LOOKOUT NC 1500 65 30/ 9/ 10 1013.5R BUOY 41002 1450 69 70 60/ 23/ 29 1007.3S 13/10 10/120/10 BUOY 41010 NOT AVBL ST AUGUSTINE FL 1500 66 67 350/ 12/ 14 1011.8R $$

USA.gov is the U.S. government's official web portal to all federal, state and local government web resources and services.